Location: Six Mile Lake
(44.9000°N, 79.7170°W)
Time: 04:56:16
(UTC-04:00)

UKube-1 - Pass Details

Date: 30 June 2022
Orbit: 608 x 615 km, 98.4° (Epoch: 09 August)

Event Time Altitude Azimuth Distance (km) Brightness Sun altitude
Rises 22:45:00 0° 22° (NNE) 2,894 ? -13.1°
Reaches altitude 10° 22:47:22 10° 31° (NNE) 1,982 ? -13.3°
Maximum altitude 22:51:19 35° 98° (E) 1,003 ? -13.7°
Enters shadow 22:53:18 23° 146° (SE) 1,321 ? -13.9°
